Location: Newark
(55.5030°N, 22.7200°E)
Time: 05:28:39
(UTC+00:00)

A-11 Canister half - All Passes

Search period start: 06 June 2020 00:00
Search period end: 16 June 2020 00:00
Orbit: 1515 x 1685 km, 47.2° (Epoch: 05 June)

Date Brightness Start Highest point End Pass type
(mag) Time Alt. Az. Time Alt. Az. Time Alt. Az.
06 Jun - 07:52:34 10° SE 07:55:15 11° SE 07:57:55 10° ESE daylight
06 Jun - 09:49:35 10° SSW 09:57:42 32° SSE 10:05:36 10° E daylight
06 Jun - 11:52:08 10° WSW 12:01:11 50° S 12:10:00 10° E daylight
06 Jun - 13:56:10 10° W 14:05:00 48° SSW 14:13:41 10° SE daylight
06 Jun - 16:00:52 10° W 16:08:15 28° SW 16:15:35 10° SSE daylight
07 Jun - 07:30:57 10° SE 07:32:30 10° SE 07:34:03 10° ESE daylight
07 Jun - 09:26:52 10° SSW 09:34:52 31° SE 09:42:42 10° E daylight
07 Jun - 11:29:17 10° WSW 11:38:20 50° S 11:47:08 10° E daylight
07 Jun - 13:33:16 10° W 13:42:10 49° SSW 13:50:53 10° ESE daylight
07 Jun - 15:37:56 10° W 15:45:28 29° SW 15:52:56 10° SSE daylight
08 Jun - 09:04:08 10° SSW 09:12:04 30° SE 09:19:47 10° E daylight
08 Jun - 11:06:25 10° WSW 11:15:28 49° SSE 11:24:16 10° E daylight
08 Jun - 13:10:22 10° W 13:19:18 49° SSW 13:28:04 10° ESE daylight
08 Jun - 15:14:58 10° W 15:22:40 30° SW 15:30:15 10° SSE daylight
09 Jun - 08:41:25 10° SSW 08:49:15 29° SE 08:56:52 10° E daylight
09 Jun - 10:43:34 10° WSW 10:52:37 49° SSE 11:01:25 10° E daylight
09 Jun - 12:47:27 10° W 12:56:27 50° S 13:05:14 10° ESE daylight
09 Jun - 14:52:02 10° W 14:59:51 31° SW 15:07:35 10° SSE daylight
09 Jun - 17:00:41 10° WSW 17:02:09 10° SW 17:03:36 10° SW daylight
10 Jun - 08:18:44 10° SSW 08:26:25 28° SE 08:33:56 10° E daylight
10 Jun - 10:20:42 10° SW 10:29:45 48° SSE 10:38:33 10° E daylight
10 Jun - 12:24:33 10° W 12:33:36 51° S 12:42:25 10° ESE daylight
10 Jun - 14:29:06 10° W 14:37:03 32° SSW 14:44:53 10° SSE daylight
10 Jun - 16:36:45 10° WSW 16:39:25 11° SW 16:42:02 10° SW daylight
11 Jun - 07:56:03 10° SSW 08:03:37 26° SE 08:11:00 10° E daylight
11 Jun - 09:57:50 10° SW 10:06:54 47° SSE 10:15:41 10° E daylight
11 Jun - 12:01:39 10° W 12:10:45 51° S 12:19:35 10° ESE daylight
11 Jun - 14:06:10 10° W 14:14:15 34° SSW 14:22:11 10° SSE daylight
11 Jun - 16:13:15 10° WSW 16:16:40 12° SW 16:20:04 10° SSW daylight
12 Jun - 07:33:23 10° S 07:40:48 25° SE 07:48:03 10° E daylight
12 Jun - 09:35:00 10° SW 09:44:03 46° SSE 09:52:49 10° E daylight
12 Jun - 11:38:45 10° WSW 11:47:53 52° S 11:56:45 10° ESE daylight
12 Jun - 13:43:13 10° W 13:51:25 35° SSW 13:59:28 10° SSE daylight
12 Jun - 15:49:54 10° WSW 15:53:55 14° SW 15:57:55 10° SSW daylight
13 Jun - 07:10:44 10° S 07:18:01 24° SE 07:25:06 10° E daylight
13 Jun - 09:12:08 10° SW 09:21:11 45° SSE 09:29:57 10° E daylight
13 Jun - 11:15:51 10° WSW 11:25:02 52° S 11:33:55 10° ESE daylight
13 Jun - 13:20:18 10° W 13:28:36 36° SSW 13:36:45 10° SSE daylight
13 Jun - 15:26:38 10° W 15:31:10 15° SW 15:35:40 10° SSW daylight
14 Jun - 06:48:05 10° S 06:55:12 23° SE 07:02:08 10° E daylight
14 Jun - 08:49:18 10° SW 08:58:20 44° SSE 09:07:05 10° E daylight
14 Jun - 10:52:57 10° WSW 11:02:09 52° S 11:11:06 10° ESE daylight
14 Jun - 12:57:22 10° W 13:05:47 37° SSW 13:14:00 10° SE daylight
14 Jun - 15:03:27 10° W 15:08:25 16° SW 15:13:20 10° SSW daylight
15 Jun - 06:25:29 10° S 06:32:23 22° SE 06:39:09 10° E daylight
15 Jun - 08:26:28 10° SW 08:35:28 43° SSE 08:44:12 10° E daylight
15 Jun - 10:30:03 10° WSW 10:39:17 53° S 10:48:15 10° ESE daylight
15 Jun - 12:34:26 10° W 12:42:57 39° SSW 12:51:16 10° SE daylight
15 Jun - 14:40:18 10° W 14:45:39 17° SW 14:50:57 10° SSW daylight
